Date String (YYYY-MM-DD hh:mm:ss) UTC,Instrument flags,absolute air pressure of the measurement (hPa),sample flow rate (lpm),inlet stack bypass flow (lpm),air temperature of the measurement (°C),ambient temperature measured by the external sensor (°C),aerosol sample conditioner tube jacket temperature (°C),OPC LED temperature (°C),internal box temperature (°C),relative humidity of the measurement (%),span deviation,mass concentration of particles derived from Lorenz-Mie calculation of OPC scattering (μg/m³),mass concentration of particles derived from Lorenz-Mie calculation of OPC scattering (μg/m³),mass concentration of particles derived from Lorenz-Mie calculation of OPC scattering (μg/m³)
DateTimeUTC,F1_M11,P_M11,Q1_M11,Q2_M11,T1_M11,T2_M11,T3_M11,T4_M11,T5_M11,U1_M11,ZSPAN_M11,X0_M11,X2_M11,X1_M11
2024-01-07 03:00:00,SystemResetWarning,0819.9,5.00,000.00,018.6,017.3,000.0,027.2,020.0,6.4,0000.0,0001.73,0000.93,0000.69
2024-01-07 03:01:00,SystemResetWarning,0819.9,5.00,000.00,018.6,017.2,000.0,027.2,020.0,6.5,0000.0,0001.78,0000.92,0000.68
2024-01-07 03:02:00,SystemResetWarning,0820.1,5.00,000.00,018.7,017.2,000.0,027.2,020.0,6.5,0000.0,0001.73,0000.90,0000.68
2024-01-07 03:03:00,SystemResetWarning,0820.0,5.00,000.00,018.7,017.2,000.0,027.2,020.0,6.5,0000.0,0001.67,0000.90,0000.68
2024-01-07 03:04:00,SystemResetWarning,0820.1,5.00,000.00,018.7,017.2,000.0,027.2,020.0,6.5,0000.0,0001.72,0000.93,0000.68
2024-01-07 03:05:00,SystemResetWarning,0820.0,4.99,000.00,018.7,017.1,000.0,027.2,020.0,6.5,0000.0,0001.57,0000.92,0000.68
2024-01-07 03:06:00,SystemResetWarning,0820.0,5.00,000.00,018.6,017.1,000.0,027.2,020.0,6.5,0000.0,0001.60,0000.91,0000.68
2024-01-07 03:07:00,SystemResetWarning,0820.0,5.00,000.00,018.7,017.1,000.0,027.2,020.0,6.5,0000.0,0001.70,0000.91,0000.68
2024-01-07 03:08:00,SystemResetWarning,0819.9,5.01,000.00,018.7,017.1,000.0,027.2,020.0,6.6,0000.0,0001.75,0000.92,0000.67
2024-01-07 03:09:00,SystemResetWarning,0820.1,5.01,000.00,018.6,017.1,000.0,027.2,020.0,6.6,0000.0,0001.73,0000.92,0000.67
2024-01-07 03:10:00,SystemResetWarning,0820.2,5.01,000.00,018.6,017.1,000.0,027.2,020.0,6.6,0000.0,0001.78,0000.93,0000.67
2024-01-07 03:11:00,SystemResetWarning,0820.0,5.00,000.00,018.7,017.3,000.0,027.1,020.2,6.7,0000.0,0001.85,0000.91,0000.66
2024-01-07 03:12:00,SystemResetWarning,0820.0,4.99,000.00,018.8,018.1,000.0,027.1,020.6,6.7,0000.0,0001.73,0000.89,0000.67
2024-01-07 03:13:00,SystemResetWarning,0820.0,5.00,000.00,018.9,018.6,000.0,027.1,020.5,6.7,0000.0,0001.73,0000.90,0000.67
2024-01-07 03:14:00,SystemResetWarning,0820.0,4.99,000.00,018.9,018.6,000.0,027.1,020.3,6.7,0000.0,0001.69,0000.88,0000.66
2024-01-07 03:15:00,SystemResetWarning,0819.9,4.99,000.00,018.8,018.4,000.0,027.1,020.1,6.8,0000.0,0001.66,0000.86,0000.65
2024-01-07 03:16:00,SystemResetWarning,0819.9,5.01,000.00,018.8,018.2,000.0,027.1,020.0,6.9,0000.0,0001.70,0000.86,0000.64
2024-01-07 03:17:00,SystemResetWarning,0819.8,5.01,000.00,018.8,018.0,000.0,027.1,020.0,6.9,0000.0,0001.59,0000.85,0000.64
2024-01-07 03:18:00,SystemResetWarning,0819.9,5.01,000.00,018.8,017.8,000.0,027.1,020.0,6.9,0000.0,0001.45,0000.84,0000.63
2024-01-07 03:19:00,SystemResetWarning,0819.8,5.00,000.00,018.8,017.7,000.0,027.1,020.0,7.0,0000.0,0001.35,0000.81,0000.63
2024-01-07 03:20:00,SystemResetWarning,0819.9,5.00,000.00,018.8,017.6,000.0,027.2,020.0,7.0,0000.0,0001.36,0000.80,0000.63
2024-01-07 03:21:00,SystemResetWarning,0819.8,4.99,000.00,018.8,017.5,000.0,027.2,020.0,7.1,0000.0,0001.34,0000.81,0000.62
2024-01-07 03:22:00,SystemResetWarning,0819.9,4.99,000.00,018.8,017.4,000.0,027.2,020.0,7.1,0000.0,0001.28,0000.84,0000.62
2024-01-07 03:23:00,SystemResetWarning,0820.0,5.01,000.00,018.8,017.3,000.0,027.2,020.0,7.1,0000.0,0001.29,0000.83,0000.61
2024-01-07 03:24:00,SystemResetWarning,0820.1,5.00,000.00,018.7,017.3,000.0,027.2,020.0,7.1,0000.0,0001.30,0000.83,0000.61
2024-01-07 03:25:00,SystemResetWarning,0820.0,5.00,000.00,018.7,017.2,000.0,027.2,020.0,7.1,0000.0,0001.30,0000.84,0000.62
2024-01-07 03:26:00,SystemResetWarning,0820.1,5.00,000.00,018.7,017.2,000.0,027.2,020.0,7.2,0000.0,0001.30,0000.85,0000.62
2024-01-07 03:27:00,SystemResetWarning,0820.1,5.00,000.00,018.7,017.1,000.0,027.2,020.0,7.2,0000.0,0001.37,0000.87,0000.62
2024-01-07 03:28:00,SystemResetWarning,0820.0,4.99,000.00,018.7,017.1,000.0,027.2,020.0,7.2,0000.0,0001.43,0000.90,0000.63
2024-01-07 03:29:00,SystemResetWarning,0820.1,4.99,000.00,018.7,017.1,000.0,027.2,020.0,7.2,0000.0,0001.60,0000.89,0000.63
2024-01-07 03:30:00,SystemResetWarning,0820.0,5.00,000.00,018.7,017.1,000.0,027.2,020.0,7.3,0000.0,0002.19,0000.91,0000.64
2024-01-07 03:31:00,SystemResetWarning,0820.0,5.00,000.00,018.6,017.1,000.0,027.2,020.0,7.3,0000.0,0002.11,0000.89,0000.65
2024-01-07 03:32:00,SystemResetWarning,0820.0,5.01,000.00,018.6,017.0,000.0,027.2,020.0,7.3,0000.0,0002.12,0000.88,0000.64
2024-01-07 03:33:00,SystemResetWarning,0820.1,5.01,000.00,018.6,017.0,000.0,027.2,020.0,7.2,0000.0,0002.13,0000.89,0000.65
2024-01-07 03:34:00,SystemResetWarning,0820.0,5.01,000.00,018.6,017.0,000.0,027.2,020.0,7.2,0000.0,0002.31,0000.94,0000.66
2024-01-07 03:35:00,SystemResetWarning,0820.0,5.00,000.00,018.6,017.0,000.0,027.2,020.0,7.2,0000.0,0002.41,0000.98,0000.66
2024-01-07 03:36:00,SystemResetWarning,0820.1,4.99,000.00,018.6,017.0,000.0,027.2,020.0,7.2,0000.0,0002.46,0000.99,0000.66
2024-01-07 03:37:00,SystemResetWarning,0820.1,5.00,000.00,018.6,017.0,000.0,027.2,020.0,7.3,0000.0,0002.46,0000.99,0000.66
2024-01-07 03:38:00,SystemResetWarning,0820.1,5.00,000.00,018.6,017.0,000.0,027.2,020.0,7.3,0000.0,0002.43,0001.00,0000.66
2024-01-07 03:39:00,SystemResetWarning,0820.1,5.00,000.00,018.6,017.0,000.0,027.2,020.0,7.3,0000.0,0002.38,0000.98,0000.66
2024-01-07 03:40:00,SystemResetWarning,0820.1,5.00,000.00,018.6,017.0,000.0,027.2,020.0,7.3,0000.0,0002.28,0001.01,0000.67
2024-01-07 03:41:00,SystemResetWarning,0820.0,5.00,000.00,018.6,017.0,000.0,027.2,020.0,7.3,0000.0,0001.63,0000.98,0000.67
2024-01-07 03:42:00,SystemResetWarning,0820.1,5.00,000.00,018.6,017.1,000.0,027.2,020.1,7.3,0000.0,0001.63,0000.98,0000.66
2024-01-07 03:43:00,SystemResetWarning,0820.0,5.01,000.00,018.7,017.8,000.0,027.1,020.4,7.3,0000.0,0001.60,0000.97,0000.67
2024-01-07 03:44:00,SystemResetWarning,0820.0,4.99,000.00,018.8,018.6,000.0,027.1,020.7,7.3,0000.0,0001.61,0000.98,0000.67
2024-01-07 03:45:00,SystemResetWarning,0819.9,4.99,000.00,018.9,018.7,000.0,027.1,020.4,7.2,0000.0,0001.54,0000.96,0000.67
2024-01-07 03:46:00,SystemResetWarning,0820.1,5.00,000.00,018.9,018.6,000.0,027.1,020.2,7.2,0000.0,0001.38,0000.90,0000.66
2024-01-07 03:47:00,SystemResetWarning,0819.9,5.00,000.00,018.8,018.4,000.0,027.1,020.1,7.2,0000.0,0001.34,0000.89,0000.66
2024-01-07 03:48:00,SystemResetWarning,0820.0,5.00,000.00,018.8,018.2,000.0,027.1,020.0,7.2,0000.0,0001.33,0000.88,0000.66
2024-01-07 03:49:00,SystemResetWarning,0820.0,5.01,000.00,018.8,018.1,000.0,027.1,020.0,7.3,0000.0,0001.26,0000.84,0000.66
2024-01-07 03:50:00,SystemResetWarning,0820.0,5.01,000.00,018.7,017.9,000.0,027.1,020.0,7.3,0000.0,0001.30,0000.86,0000.65
2024-01-07 03:51:00,SystemResetWarning,0820.0,5.00,000.00,018.7,017.8,000.0,027.1,020.0,7.3,0000.0,0001.36,0000.87,0000.64
2024-01-07 03:52:00,SystemResetWarning,0819.9,5.00,000.00,018.7,017.7,000.0,027.1,020.0,7.3,0000.0,0001.36,0000.87,0000.65
2024-01-07 03:53:00,SystemResetWarning,0820.0,5.00,000.00,018.7,017.7,000.0,027.2,020.0,7.3,0000.0,0001.39,0000.88,0000.65
2024-01-07 03:54:00,SystemResetWarning,0819.9,5.00,000.00,018.7,017.6,000.0,027.2,020.0,7.3,0000.0,0001.43,0000.90,0000.66
2024-01-07 03:55:00,SystemResetWarning,0819.9,5.00,000.00,018.7,017.5,000.0,027.2,020.0,7.3,0000.0,0001.47,0000.90,0000.66
2024-01-07 03:56:00,SystemResetWarning,0820.0,5.00,000.00,018.7,017.5,000.0,027.2,020.0,7.3,0000.0,0001.41,0000.89,0000.66
2024-01-07 03:57:00,SystemResetWarning,0820.1,5.00,000.00,018.6,017.4,000.0,027.2,020.0,7.3,0000.0,0001.41,0000.90,0000.67
2024-01-07 03:58:00,SystemResetWarning,0819.9,4.99,000.00,018.6,017.4,000.0,027.2,020.0,7.3,0000.0,0001.51,0000.94,0000.68
2024-01-07 03:59:00,SystemResetWarning,0819.9,4.99,000.00,018.6,017.4,000.0,027.2,020.0,7.3,0000.0,0001.53,0000.96,0000.68
